Regional Weather Roundup
Issued by NWS

Home | Current Version | Previous Version | Graphics & Text | Print | Product List | Glossary On
Versions: 1 2 3 4 5 6 7 8 9 10 11 12 13 14 15 16 17 18 19 20 21 22 23 24 25 26 27 28 29 30 31 32 33 34 35 36 37 38 39 40 41 42 43 44 45 46 47 48 49 50
000
ASUS45 KBOU 270407
RWRCO

WEATHER ROUNDUP FOR COLORADO
NATIONAL WEATHER SERVICE DENVER/BOULDER CO
1000 PM MDT SUN APR 26 2015

NOTE: "FAIR" INDICATES FEW OR NO CLOUDS BELOW 12000 FEET WITH NO
SIGNIFICANT WEATHER AND/OR OBSTRUCTIONS TO VISIBILITY.

COZ001>005-013-030-031-270500-
...NORTHWEST COLORADO...

CITY           SKY/WX    TMP DP  RH WIND       PRES   REMARKS
CRAIG          LGT RAIN  42  39  89 N7        30.00R
HAYDEN         CLOUDY    41  37  87 W6        29.99R
MEEKER         LGT RAIN  42  39  89 SW3       30.00R
MOUNT WERNER   NOT AVBL
STEAMBOAT SPGS CLOUDY    39  38  93 S3        30.00R
WALDEN         MOCLDY    36  28  75 E6        30.02R
$$

COZ006>008-011-270500-
...WEST CENTRAL VALLEYS...

CITY           SKY/WX    TMP DP  RH WIND       PRES   REMARKS
GRAND JUNCTION CLOUDY    46  45  96 CALM      29.93R
MONTROSE       CLOUDY    45  42  89 NW5       29.96R
EAGLE          MOCLDY    46  43  87 W5        29.97R
RIFLE          CLOUDY    46  39  76 CALM      29.95R
DELTA          CLOUDY    49  43  81 MISG      29.93S
NUCLA          CLOUDY    46  43  87 CALM      29.95S
$$

COZ017>023-064>068-270500-
...SOUTHWEST COLORADO...

CITY           SKY/WX    TMP DP  RH WIND       PRES   REMARKS
DURANGO        CLOUDY    38  37  97 CALM      29.87R
CORTEZ         CLOUDY    47  39  74 CALM      29.88R
PAGOSA SPRINGS CLOUDY    40  39  96 CALM      29.90R
TELLURIDE      FLURRIES  35  35 100 S3        29.98R
WOLF CREEK PAS NOT AVBL
$$

COZ009-010-012-014-032>034-037-058>063-270500-
...CENTRAL COLORADO...

CITY           SKY/WX    TMP DP  RH WIND       PRES   REMARKS
ASPEN          CLOUDY    39  36  89 N3        29.97R
BUENA VISTA    CLOUDY    38  34  85 CALM      30.03R
COPPER MTN     CLOUDY    28  23  80 E18G25    30.08R WCI  16
BERTHOUD PASS  HAZE      19  12  73 MISG      30.11R THUNDER VSB<1/4
COTTONWOOD PAS MIX PCPN  34  32  93 SE8       30.06R VSB 1/2 WCI  27
GUNNISON       PTCLDY    39  34  81 CALM      29.99R
KREMMLING      MOCLDY    41  30  65 NE5       30.01R
LEADVILLE      SNOW      29  29 100 S10       30.03R VSB 1/2 WCI  20
SALIDA         CLOUDY    36  35  96 CALM      30.11R
SUNLIGHT       CLOUDY    32  32 100 CALM      30.09R FOG
WILKERSON PASS LGT SNOW N/A N/A N/A MISG      30.11R VSB 1
$$

COZ069>075-270500-
...SAN LUIS VALLEY/SANGRE DE CRISTO MOUNTAINS...

CITY           SKY/WX    TMP DP  RH WIND       PRES   REMARKS
ALAMOSA        CLOUDY    37  35  92 NW6       29.94R
LA VETA PASS   SNOW      28  27  93 MISG      29.98S VSB 1/2
SAGUACHE       CLOUDY    34  34 100 NW6       29.98R WCI  29
$$

COZ035-036-038>040-270500-
...NORTHERN COLORADO FRONT RANGE...

CITY           SKY/WX    TMP DP  RH WIND       PRES   REMARKS
DENVER INTL AP LGT RAIN  41  41 100 E13       30.07R FOG
DMNS CITY PARK   N/A     41  40  97 N5        30.07R
AURORA         LGT RAIN  40  40 100 E9        30.07R
FRONT RANGE AP NOT AVBL
ERIE MUNI ARPT CLOUDY    42  41  97 NE5       30.08R
BOULDER MUN AP DRIZZLE   41  41 100 NE5       30.07R
CENTENNIAL     DRIZZLE   40  40 100 NE7       30.06R FOG
BROOMFIELD     LGT RAIN  41  41 100 N6        30.06R VSB 3/4
FORT COLLINS   CLOUDY    43  39  87 E7        30.10R
LONGMONT       CLOUDY    45  42  92 NE3       30.09R
$$

COZ041-046-047-076>085-087-088-270500-
...PIKES PEAK/PALMER DIVIDE AND SOUTHERN FOOTHILLS...

CITY           SKY/WX    TMP DP  RH WIND       PRES   REMARKS
COLO. SPRINGS  LGT RAIN  40  39  97 E9        30.04R FOG
A. F. ACADEMY  DRIZZLE   37  37  99 N3        30.04R
ELLICOTT       CLOUDY   N/A N/A N/A E15       30.02R
FALCON         CLOUDY    37  37 100 E8        30.05S FOG
FORT CARSON    LGT RAIN  39  39 100 N6        30.02R
LIMON          CLOUDY    39  38  96 NE7       30.05R
MONUMENT HILL  CLOUDY    36  36 100 E8        30.05R FOG
TRINIDAD       LGT RAIN  42  41  96 E17       29.97R FOG
$$

COZ042>045-048>051-090-091-270500-
...NORTHEAST COLORADO...

CITY           SKY/WX    TMP DP  RH WIND       PRES   REMARKS
GREELEY ARPT   CLOUDY    41  37  87 E10       30.10R
AKRON          LGT RAIN  41  41 100 E12       30.09R FOG
BURLINGTON     RAIN      43  41  93 E15       30.06R FOG
WRAY           LGT RAIN N/A N/A N/A NE7       30.09S
STERLING       LGT RAIN  43  43 100 E6        30.10R
HOLYOKE        CLOUDY    46  43  87 NE6       30.11R FOG
FORT MORGAN    RAIN      40  39  96 E9        30.10R
$$

COZ086-089-092>099-270500-
...SOUTHEAST COLORADO...

CITY           SKY/WX    TMP DP  RH WIND       PRES   REMARKS
PUEBLO         LGT RAIN  44  42  93 E12       30.01R
LA JUNTA       CLOUDY    45  43  93 E14       30.00R
LAMAR          CLOUDY    45  44  97 E12       29.99R
SPRINGFIELD      N/A     44  44 100 E13       29.96R
$$


USA.gov is the U.S. government's official web portal to all federal, state and local government web resources and services.